Hemavan current weather conditions

sailwx.info

Wind from 120 at 11 knots

Air temperature 7.0° C
Visibility: greater than 5.4 NM
Dewpoint -0.0° C

Last reported at 2017-Sep-19 12:50 UTC.
Time now 2017-Sep-19 13:46 UTC

Location: N 65°48' E 015°05'.
View on Google Maps.

See reports from other nearby stations

  
Tides and Currents Weather Stations Pressure Air Temp Water Temp Dewpoint Dewpoint Depression Visibility Wind Speed Wind Dir Waves Ship Positions
date/time (UTC)wind fromknots sea level pressurealtimeterstation pressurevisibilityair tempwater tempwave heightnotes
2017-Sep-19 12:50 120 11 5.4 7.0
2017-Sep-19 12:20 110 9 5.4 6.0
2017-Sep-19 11:50 110 8 5.4 5.0
2017-Sep-19 11:20 100 9 5.4 6.0
2017-Sep-19 10:50 140 8 5.4 6.0
2017-Sep-19 10:20 140 9 5.4 6.0
2017-Sep-19 09:50 120 7 5.4 6.0
2017-Sep-19 09:20 110 7 5.4 6.0
2017-Sep-19 08:50 100 12 5.4 5.0
2017-Sep-19 08:20 100 12 5.4 5.0
2017-Sep-19 07:50 090 9 5.4 5.0
2017-Sep-19 07:20 5.4 4.0
2017-Sep-19 06:50 100 8 5.4 4.0
2017-Sep-19 06:20 050 7 5.4 4.0
2017-Sep-19 05:50 090 9 5.4 3.0
2017-Sep-19 05:20 100 13 5.4 3.0
2017-Sep-19 04:50 080 9 5.4 3.0
2017-Sep-19 04:20 080 8 5.4 4.0
2017-Sep-19 03:50 5.4 4.0
2017-Sep-19 03:20 080 5 5.4 4.0
2017-Sep-19 02:50 5.4 3.0
2017-Sep-19 02:20 130 7 5.4 4.0
2017-Sep-19 01:50 150 11 5.4 5.0
2017-Sep-19 01:20 140 9 5.4 5.0
2017-Sep-19 00:50 130 7 5.4 6.0
2017-Sep-19 00:20 120 6 5.4 6.0
2017-Sep-18 23:50 110 7 5.4 6.0
2017-Sep-18 23:20 160 11 5.4 7.0
2017-Sep-18 22:50 150 9 5.4 7.0
2017-Sep-18 22:20 160 8 5.4 7.0
2017-Sep-18 21:50 080 5 5.4 7.0
2017-Sep-18 21:20 160 6 5.4 8.0
2017-Sep-18 20:50 160 5 5.4 8.0
2017-Sep-18 20:20 200 8 5.4 9.0
2017-Sep-18 19:50 5.4 9.0
2017-Sep-18 19:20 210 5 5.4 9.0
2017-Sep-18 18:50 130 6 5.4 9.0
2017-Sep-18 18:20 130 6 5.4 9.0 Drizzle.
2017-Sep-18 17:50 5.410.0 Drizzle.
2017-Sep-18 17:20 080 2 5.410.0
2017-Sep-18 16:50 5.410.0
2017-Sep-18 16:20 5.411.0
2017-Sep-18 15:50 5.411.0
2017-Sep-18 15:20 160 2 5.412.0 Light rain.
2017-Sep-18 14:50 240 1 5.411.0
2017-Sep-18 14:20 5.413.0
2017-Sep-18 13:50 5.413.0
2017-Sep-18 13:20 5.411.0
2017-Sep-18 12:50 5.411.0
2017-Sep-18 12:20 5.412.0
2017-Sep-18 11:50 310 2 5.412.0
2017-Sep-18 11:20 5.412.0
2017-Sep-18 10:50 5.411.0
2017-Sep-18 10:20 5.411.0
2017-Sep-18 09:50 5.410.0
2017-Sep-18 09:20 5.410.0
2017-Sep-18 08:50 5.4 9.0
2017-Sep-18 08:20 5.4 9.0
2017-Sep-18 07:50 3.8 8.0 Mist.
2017-Sep-18 07:20 010 1 3.8 9.0 Mist.
2017-Sep-18 06:50 5.4 9.0
2017-Sep-18 06:20 010 2 5.4 8.0
2017-Sep-18 05:50 350 4 5.4 8.0
2017-Sep-18 05:20 340 4 5.4 8.0
2017-Sep-18 04:50 350 4 5.4 8.0
2017-Sep-18 04:20 360 5 5.4 7.0
2017-Sep-18 03:50 040 1 5.4 7.0
2017-Sep-18 03:20 5.4 7.0
2017-Sep-18 02:50 350 2 5.4 7.0
2017-Sep-18 02:20 320 4 5.4 7.0
2017-Sep-18 01:50 5.4 7.0
2017-Sep-18 01:20 5.4 7.0
2017-Sep-18 00:50 5.4 7.0
2017-Sep-18 00:20 5.4 7.0
2017-Sep-17 23:50 320 1 5.4 7.0
2017-Sep-17 23:20 5.4 7.0
2017-Sep-17 22:50 5.4 7.0
2017-Sep-17 22:20 5.4 7.0
2017-Sep-17 21:50 090 1 5.4 7.0
2017-Sep-17 21:20 5.4 7.0
2017-Sep-17 20:50 5.4 7.0
2017-Sep-17 20:20 5.4 7.0
2017-Sep-17 19:50 5.4 7.0
2017-Sep-17 19:20 350 4 5.4 7.0
2017-Sep-17 18:50 310 2 5.4 7.0 Light drizzle.
2017-Sep-17 18:20 280 6 5.4 7.0
2017-Sep-17 17:50 310 4 5.4 7.0
2017-Sep-17 17:20 330 2 5.4 7.0
2017-Sep-17 16:50 360 2 5.4 7.0
2017-Sep-17 16:20 340 6 5.4 7.0
2017-Sep-17 15:50 330 5 5.4 7.0
2017-Sep-17 15:20 300 6 5.4 7.0
2017-Sep-17 14:50 280 6 5.4 8.0
2017-Sep-17 14:20 300 6 5.4 8.0
2017-Sep-17 13:50 280 6 5.4 8.0
2017-Sep-17 13:20 320 6 5.4 8.0